DW7572 Weather Reports


time (UTC)temp
C
wind
direction
speed
KPH
gust
KPH
rain 1hr
cm
rain 24hr
cm
rain mn
cm
humidity
%
barometer
mb
20260507030017 4 68 1.6 6.4 0.00 0.00 0.00 58 1015.5
20260507023016 5 45 4.8 6.4 0.00 0.00 0.00 57 1015.3
20260507020017 5 45 6.4 11.3 0.00 0.00 0.00 54 1015.4
20260507013017 7 23 8.0 14.5 0.00 0.00 0.00 50 1015.5
20260507010016 8 23 12.9 19.3 0.00 0.00 0.00 46 1015.5
20260507003016 9 338 17.7 24.1 0.00 0.00 0.00 44 1015.5
20260507000017 10 315 20.9 35.4 0.00 0.00 0.00 43 1015.8
20260506233016 10 338 17.7 30.6 0.00 0.00 0.00 44 1015.9
20260506230037 9 0 17.7 32.2 0.00 0.00 0.00 45 1016.2
20260506223036 9 315 22.5 38.6 0.00 0.00 0.00 44 1016.4
20260506220016 9 315 19.3 41.8 0.00 0.00 0.00 46 1016.4
20260506213015 9 315 20.9 37.0 0.00 0.00 0.00 46 1016.6
20260506210018 8 315 19.3 37.0 0.00 0.00 0.00 46 1017.1
20260506203018 8 315 17.7 37.0 0.00 0.00 0.00 46 1017.2
20260506200017 8 315 17.7 37.0 0.00 0.00 0.00 48 1017.3
20260506193017 7 315 19.3 32.2 0.00 0.00 0.00 50 1017.6
20260506190019 7 315 20.9 37.0 0.00 0.00 0.00 51 1017.6
20260506183058 7 315 20.9 37.0 0.00 0.00 0.00 51 1017.8
20260506180018 6 315 16.1 30.6 0.00 0.00 0.00 52 1017.9
20260506173018 6 315 24.1 35.4 0.00 0.00 0.00 52 1017.9
20260506170018 6 315 22.5 35.4 0.00 0.00 0.00 54 1018.1
20260506163017 6 315 20.9 38.6 0.00 0.00 0.00 56 1018.1
20260506160058 5 315 16.1 30.6 0.00 0.00 0.00 60 1018.0
20260506153017 5 315 11.3 20.9 0.00 0.00 0.00 62 1017.9
20260506150017 4 338 11.3 19.3 0.00 0.00 0.00 62 1018.0
20260506143017 4 338 12.9 20.9 0.00 0.00 0.00 63 1017.8
20260506140018 4 315 16.1 22.5 0.00 0.00 0.00 65 1017.7
20260506133017 3 315 16.1 22.5 0.00 0.00 0.00 68 1017.7
20260506130016 3 293 11.3 17.7 0.00 0.00 0.00 70 1017.2
20260506123057 2 293 8.0 17.7 0.00 0.00 0.00 71 1017.0
20260506120037 2 293 3.2 11.3 0.00 0.00 0.00 75 1016.6
20260506113017 1 293 1.6 4.8 0.00 0.00 0.00 75 1016.1
20260506110016 0 293 1.6 4.8 0.00 0.00 0.00 74 1015.5
20260506103057 1 293 1.6 6.4 0.00 0.00 0.00 73 1015.6
20260506100016 1 293 3.2 8.0 0.00 0.00 0.00 72 1015.9
20260506093058 1 293 6.4 8.0 0.00 0.00 0.00 71 1015.4
20260506090016 1 293 6.4 8.0 0.00 0.00 0.00 71 1015.4
20260506083016 1 293 6.4 8.0 0.00 0.00 0.00 70 1015.4
20260506073016 2 315 4.8 8.0 0.00 0.00 0.00 67 1015.2
20260506043017 3 315 8.0 12.9 0.00 0.00 0.00 61 1014.7
20260506040017 4 338 11.3 16.1 0.00 0.00 0.00 58 1014.5
20260506033017 5 338 11.3 16.1 0.00 0.00 0.00 57 1014.2